Current Version              Previous Version:    01  02  03  04  05  06  07  08  09  10  11  12  13  14  15  16  17  18  19  20  21  22  23  24  25  26  27  28  29  30  
   31  32  33  34  35  36  37  38  39  40  41  42  43  44  45  46  47  48  49  50  51  52  53  54  55  56  57  58  59  60  

[Printable]
272
ASUS44 KLUB 020710
RWRTX
WEST TEXAS WEATHER ROUNDUP
NATIONAL WEATHER SERVICE LUBBOCK TX
200 AM CDT THU OCT 02 2014

NOTE: "FAIR" INDICATES FEW OR NO CLOUDS BELOW 12,000 FEET WITH NO
SIGNIFICANT WEATHER AND/OR OBSTRUCTIONS TO VISIBILITY.

TXZ004-006>008-010-012-014-016-OKZ002-020800-
TEXAS PANHANDLE/OKLAHOMA PANHANDLE

CITY           SKY/WX    TMP DP  RH WIND       PRES   REMARKS
AMARILLO       CLEAR     59  44  57 SW8       29.80F
BORGER         CLEAR     67  42  40 W3        29.76F
CANADIAN       CLEAR     58  48  68 S3        29.73S
DALHART        PTCLDY    58  44  60 NW8       29.86R
DUMAS          CLEAR     59  41  50 W12       29.81F
GUYMON         PTCLDY    61  41  47 CALM      29.75S
HEREFORD       CLEAR     53  49  86 W6        29.84S
PAMPA          CLEAR     62  42  47 SW8       29.78S
PERRYTON       CLEAR     59  40  48 CALM      29.75S
$$

TXZ026-029-035-045-048-020800-
SOUTHERN PANHANDLE/SOUTH PLAINS/ROLLING PLAINS

CITY           SKY/WX    TMP DP  RH WIND       PRES   REMARKS
CHILDRESS      CLEAR     69  56  62 SW9       29.73S
SEMINOLE       CLEAR     64  46  51 SW7       29.87S
LUBBOCK        CLEAR     62  49  62 SW5       29.82S
PLAINVIEW      CLEAR     57  51  79 SW3       29.80S
SNYDER         CLEAR     72  64  76 S7        29.81S
$$

TXZ052-054-060>062-072-078-127-140-154-169-020800-
PERMIAN BASIN/CONCHO VALLEY/BIG COUNTRY/EDWARDS PLATEAU

CITY           SKY/WX    TMP DP  RH WIND       PRES   REMARKS
ABILENE        CLEAR     80  64  58 S15       29.79S
BIG SPRING     CLEAR     79  63  58 S14       29.84S
BRADY          CLEAR     75  66  73 S8        29.83S
BROWNWOOD      CLEAR     77  66  69 S7        29.81S
JUNCTION       CLEAR     76  67  73 S5        29.84S
MIDLAND        CLEAR     75  63  66 S10       29.83F
ODESSA         CLEAR     73  62  68 SW10      29.85S
SAN ANGELO     CLEAR     78  64  61 S13       29.81R
SONORA         CLEAR     77  66  69 S8        29.89S
SWEETWATER     CLEAR     76  63  64 S10       29.84S
WINK           CLEAR     65  54  67 E5        29.81F
$$

TXZ055-058-074-075-080-082-020800-
FAR WEST/SOUTHWEST MOUNTAINS/TRANS PECOS

CITY           SKY/WX    TMP DP  RH WIND       PRES   REMARKS
ALPINE         CLEAR     61  46  58 SW7       30.01S
DRYDEN           N/A     73  66  78 NE7       29.81F
EL PASO        CLEAR     67  37  33 S6        29.93S
FORT STOCKTON  CLEAR     69  58  67 S9        29.85F
GUADALUPE PASS CLEAR     62  36  37 SW15      30.01R
MARFA          CLEAR     54  45  71 N5        30.00F
PECOS          CLEAR     63  52  69 W3        29.83S
PRESIDIO       FAIR      75  49  40 W6        29.85R
$$

TXZ014-016-019-021>030-083-020800
TEXAS TECH WEST TEXAS MESONET/TEXAS PANHANDLE/NORTHERN SOUTH PLAINS

CITY           SKY/WX    TMP DP  RH WIND       PRES   REMARKS
ABERNATHY 5ENE   N/A     54  49  82 S9        29.83R
AMARILLO 9NNE    N/A     59  43  53 N2        29.79R
AMARILLO 7SSE    N/A     51  45  81 W8        29.82S
AMHERST 1NE      N/A     62  47  58 SW7       29.83S
BOOTLEG 11WNW    N/A     60  41  50 W13       29.88S
CANADIAN 6E      N/A     59  44  57 NE1       29.72S
CAPROCK CYN SP   N/A     73  42  32 W9        29.76S
CHILDRESS 2NNE   N/A     69  55  62 SW10      29.72S
CLARENDON 2WSW   N/A     63  44  49 W9        29.76S
CLAUDE 12SW      N/A     68  41  37 SW5       29.80S
DIMMITT 2NE      N/A     60  44  54 SW9       29.83S
FLOYDADA 2NNE    N/A     62  47  59 SW9       29.80S
FRIONA 2NE       N/A     54  44  67 SW9       29.85S
GOODLETT 3W      N/A     67  59  74 S8        29.70F
HART 3N          N/A     52  47  81 W7        29.83R
HEREFORD 2NW     N/A     53  45  75 SW7       29.83S
MCLEAN 1E        N/A     65  46  50 SW8       29.74F
MEMPHIS 1NE      N/A     58  54  84 W2        29.72S
OLTON 6S         N/A     56  47  71 SW8       29.82S
PALO DURO SP     N/A     60  44  55 S1        29.82R
PAMPA 2E         N/A     64  44  49 SW7       29.77S
PLAINVIEW 1S     N/A     55  49  81 W2        29.81S
SILVERTON 7ESE   N/A     54  47  77 SW8       29.80S
TULIA 2ENE       N/A     62  46  54 SW8       29.81S
TURKEY 2WSW      N/A     62  50  63 SW10      29.75R
UMBARGER 3NNE    N/A     53  45  74 SW8       29.83S
$$

TXZ033>036-039>041-045>048-020800
TEXAS TECH WEST TEXAS MESONET/SOUTH PLAINS

CITY           SKY/WX    TMP DP  RH WIND       PRES   REMARKS
AIKEN 3WSW       N/A     57  50  77 SW7       29.82S
ANDREWS 2NE      N/A     70  61  73 SW6       29.86S
ANTON 6SSW       N/A     55  51  84 S5        29.82F
BROWNFIELD 2S    N/A     60  48  64 SW9       29.84F
DENVR CTY 7WNW   N/A     64  40  41 W9        29.85S
GAIL 2ESE        N/A     71  64  77 SW6       29.81R
LAMESA 2SE       N/A     62  56  83 S6        29.84S
LEVELLAND 4S     N/A     52  48  86 S7        29.83S
LUBBOCK 3WNW     N/A     61  47  61 S7        29.83S
MORTON 1ENE      N/A     59  46  61 W7        29.83S
ODONNELL 1N      N/A     66  55  68 SW7       29.84R
RALLS 1SE        N/A     59  52  77 S8        29.82S
REESE CENTER     N/A     57  49  76 SW8       29.82F
SEMINOLE 2NNE    N/A     66  42  41 S8        29.85S
SLATON 2NE       N/A     65  49  57 SW12      29.82S
SNYDER 3E        N/A     72  64  75 S9        29.80S
SUNDOWN 8SW      N/A     57  46  66 SW10      29.84S
TAHOKA 3NNE      N/A     62  51  66 SW10      29.83R
WOLFFORTH 6SSW   N/A     60  51  73 S6        29.84S
$$

TXZ031-032-036>038-042>044-020800-
TEXAS TECH WEST TEXAS MESONET/ROLLING PLAINS

CITY           SKY/WX    TMP DP  RH WIND       PRES   REMARKS
ASPERMONT 3NE    N/A     77  63  63 S10       29.75S
FLUVANNA 3WNW    N/A     70  62  76 SW8       29.81S
GRAHAM 5SSW      N/A     70  56  59 SW13      29.81S
GUTHRIE 10WSW    N/A     67  57  68 S8        29.76R
HASKELL 1NW      N/A     79  62  55 S10       29.75R
JAYTON 1SSE      N/A     70  58  64 W8        29.77R
KNOX CITY 3NW    N/A     74  62  64 S9        29.73S
LK A HENRY 1NW   N/A     72  63  72 W6        29.79R
PADUCAH 10SW     N/A     67  53  61 SW10      29.74S
POST 1NE         N/A     70  54  55 SW9       29.80S
RRING SPRGS 3N   N/A     61  51  69 SW7       29.78R
SEYMOUR 3NW      N/A     80  64  58 S13       29.72S
SPUR 1W          N/A     64  54  70 SW3       29.78R
WEINERT 2NNE     N/A     80  64  58 S9        29.75R
WHITE RVR 6NE    N/A     67  47  48 SW8       29.80R
$$

TXZ052-054-060>062-072-078-127-140-154-169-020800-
TEXAS TECH WEST TEXAS MESONET/PERMIAN BASIN/
CONCHO VALLEY/BIG COUNTRY/EDWARDS PLATEAU

CITY           SKY/WX    TMP DP  RH WIND       PRES   REMARKS
COYANOSA 2N      N/A     66  51  58 S7        29.82S
JUNCTION 1SSW    N/A     76  68  76 S6        29.84F
MERTZON 3NNE     N/A     76  65  68 S10       29.83S
SAN ANGELO 7NW   N/A     76  62  62 S5        29.82S
STRLNG CT 4WSW   N/A     75  64  69 S12       29.83S
ST LAWRNCE 5SW   N/A     74  62  65 S10       29.84S
SWEETWATR 11SW   N/A     74  64  69 S13       29.83S
WALL 1E          N/A     78  63  59 S17       29.80S
$$

TXZ055-058-074-075-080-082-020800-
TEXAS TECH WEST TEXAS MESONET/FAR WEST/SOUTHWEST MOUNTAINS/TRANS PECOS

CITY           SKY/WX    TMP DP  RH WIND       PRES   REMARKS
PRSMN GAP BBNP   N/A     73  63  70 NE6       29.86S
GUADLPE MTN NP   N/A     68  31  24 W13       30.00S
$$